Location: Leiter
(44.7178°N, 106.2687°W)
Time: 15:10:18
(UTC+00:00)

X-37B - Visible Passes

Search period start: 22 January 2022 00:00
Search period end: 01 February 2022 00:00
Orbit: 334 x 337 km, 45.0° (Epoch: 11 January)

Date Brightness Start Highest point End Pass type
(mag) Time Alt. Az. Time Alt. Az. Time Alt. Az.
26 Jan 3.2 02:07:15 10° SSW 02:07:37 12° SSW 02:07:37 12° SSW visible
27 Jan 3.4 02:27:00 10° SW 02:27:26 13° SW 02:27:26 13° SW visible
28 Jan 2.1 01:12:42 10° SSW 01:14:53 20° SSE 01:15:56 17° ESE visible
29 Jan 1.0 01:32:26 10° SW 01:35:09 41° SSE 01:35:38 36° SE visible
30 Jan 0.5 01:52:41 10° WSW 01:55:16 67° SW 01:55:16 67° SW visible
31 Jan 1.1 00:37:52 10° SW 00:40:34 40° SSE 00:43:16 10° E visible
31 Jan 2.0 02:13:07 10° W 02:14:53 34° W 02:14:53 34° W visible
